カタログに戻る

ONEWEB-0692

運用中通信PO
NORAD 61600·PAYLOAD·🇬🇧 United Kingdom

打ち上げ Oct 20, 2024 から Vandenberg Space Force Base

Loading…

次のパス (今後24時間)

TLE

最新Source: CelesTrak SupGP

元期: Sep 14, 2026, 23:06 UTC

1 61600C 24188G   26257.96301343 -.00002877  00000+0 -81283-2 0  2573
2 61600  87.8963   3.2337 0001071  89.5144  13.4697 13.11418690    19

AllMySatでONEWEB-0692をリアルタイム追跡

Download on the App Store